RH
3 3 2 4 4 13 14 14 14 16 19 20 19 19 22 22 22 31 45 32 41 38 30 31 33 29 23 34 38 43 32 18 17 14 12 13 13 14 13 11 8 4 3 3 4 4 4 5 5
4 4 3 4 5 9 8 8 12 15 19 20 20 19 22 27 30 27 35 35 40 43 45 28 34 29 24 36 42 35 21 15 13 12 12 13 14 12 6 4 3 3 3 4 4 4 4 5 7
6 5 4 4 4 4 6 6 8 14 16 22 25 22 25 29 30 28 28 40 46 45 49 38 29 34 29 36 43 34 16 12 12 12 12 13 12 6 3 3 3 3 4 4 4 4 5 8 9
8 7 5 4 4 4 4 4 5 8 16 18 20 24 26 25 25 32 35 45 50 50 51 45 26 34 32 42 52 36 15 12 12 12 12 13 9 4 4 3 3 4 4 4 4 6 8 8 8
11 10 7 6 5 5 5 5 5 6 10 16 18 18 21 23 25 28 26 35 57 56 54 48 34 28 35 44 54 40 14 13 13 12 13 12 7 4 3 3 4 4 4 4 6 8 8 7 6
13 12 9 8 7 7 6 6 5 5 6 12 17 18 18 18 20 22 37 48 60 59 58 52 44 33 32 43 52 46 16 13 13 12 13 11 6 4 3 3 4 4 4 6 8 8 7 6 5
13 15 15 13 12 11 10 8 6 5 4 6 9 16 18 18 20 25 25 35 58 59 60 56 50 44 31 34 47 40 16 14 13 12 13 8 4 4 3 3 3 4 6 8 8 7 6 5 5
12 15 17 15 15 14 12 12 10 8 6 5 6 11 12 19 18 21 47 40 45 56 60 57 54 52 38 34 40 35 16 14 13 13 12 6 4 3 3 3 4 6 8 8 6 6 5 5 6
18 18 16 15 16 17 17 15 12 11 10 9 7 10 14 13 22 22 45 70 62 59 59 62 58 57 43 36 38 32 17 15 13 14 9 5 4 3 3 4 6 8 8 7 6 5 6 5 4
17 19 17 20 20 21 21 20 16 13 13 12 9 10 15 15 15 30 52 96 69 69 54 61 57 61 48 38 41 32 19 16 13 13 8 4 4 3 3 4 7 8 8 7 5 5 4 3 4
14 11 15 16 22 23 18 17 23 18 12 10 10 10 13 15 17 25 46 95 99 84 80 50 63 61 52 42 45 34 21 17 14 13 7 4 4 4 4 5 8 9 8 7 5 4 3 3 4
20 18 20 19 21 20 19 19 15 16 11 13 10 11 10 13 11 24 33 93 99 98 100 93 70 64 59 47 48 35 22 17 15 12 6 4 4 4 4 5 7 8 9 8 6 4 3 3 4
30 29 30 30 28 29 32 24 27 16 10 15 14 12 10 10 12 15 27 42 96 98 100 89 89 78 69 56 54 38 24 17 15 11 6 4 4 4 4 6 8 8 9 8 6 4 3 3 4
34 31 28 29 32 38 35 21 45 11 30 29 19 17 14 10 11 16 31 31 62 100 97 98 93 99 76 65 60 39 25 17 15 10 5 5 4 4 4 4 7 8 9 8 6 4 3 3 4
33 29 32 32 43 47 47 24 30 32 39 32 24 18 18 14 12 13 27 39 40 98 99 98 100 100 94 88 60 38 25 18 15 9 6 5 4 4 4 4 6 9 9 7 5 4 3 4 4
38 42 42 50 58 60 72 27 47 37 37 36 33 32 32 26 17 13 33 53 47 91 98 100 99 97 98 99 67 43 26 18 14 8 6 5 5 6 5 5 6 9 9 7 5 4 4 4 4
63 73 78 75 61 76 94 52 44 50 55 51 49 36 34 30 26 15 20 47 57 58 93 98 98 98 97 100 70 44 25 18 14 8 6 6 7 8 6 5 7 9 10 8 7 5 4 3 3
93 96 99 97 81 96 100 67 48 51 58 48 49 60 50 36 26 18 13 40 54 74 95 96 98 98 99 100 73 41 24 18 13 8 7 7 10 10 8 6 8 10 10 10 10 9 7 6 4
99 99 94 85 88 100 83 74 47 55 70 56 43 50 52 44 27 22 14 25 52 71 98 99 97 99 98 99 60 36 24 17 12 8 8 11 14 12 8 7 8 11 12 12 12 12 10 7 5
94 89 77 85 90 100 80 64 48 53 49 50 44 41 46 41 39 29 21 21 45 67 98 99 98 100 96 96 66 37 23 17 11 8 10 15 16 12 8 7 10 12 13 13 13 11 9 7 6
82 84 85 90 94 92 84 76 50 42 46 47 29 30 39 35 36 27 24 36 48 67 93 100 94 96 100 85 59 32 22 16 10 9 13 18 15 11 8 8 11 13 14 14 12 11 9 7 7
86 80 82 91 99 98 99 87 58 44 45 48 39 26 29 31 32 24 19 48 50 81 85 99 93 100 100 82 54 31 20 14 10 11 17 18 14 12 10 10 14 15 14 13 12 10 8 7 8
71 84 82 100 100 99 93 100 49 54 53 54 57 42 23 25 26 24 13 47 59 90 97 99 97 100 100 85 50 30 20 14 12 15 20 17 15 13 12 12 15 15 14 14 12 9 8 8 10
85 79 81 93 96 96 73 81 62 58 80 74 68 62 40 31 20 25 19 58 76 89 93 84 99 99 100 97 48 29 20 14 14 19 20 18 18 15 14 15 17 16 15 14 9 7 8 10 10
82 96 91 91 97 85 64 90 57 72 90 91 62 60 55 41 25 25 22 48 65 86 94 80 98 98 100 88 43 27 18 15 17 21 20 21 20 18 17 18 18 17 15 9 8 8 9 10 12
89 94 98 96 93 75 78 93 50 67 83 86 70 55 56 45 29 26 26 46 64 75 94 90 97 100 99 99 58 26 20 17 23 22 22 24 22 20 19 19 18 16 9 9 10 10 11 13 16
88 92 96 98 89 98 73 60 61 68 69 77 64 62 59 41 28 27 43 61 56 75 91 99 99 100 100 98 90 31 24 23 26 24 26 26 23 21 21 21 18 10 11 12 11 12 14 18 20
82 93 97 92 95 93 77 65 81 75 79 75 86 74 60 57 31 35 46 61 53 87 95 100 100 97 100 100 99 67 38 32 37 31 29 28 23 22 23 20 12 13 13 13 14 17 20 21 22
88 92 97 98 98 96 89 65 76 82 92 96 100 81 65 42 34 40 46 79 82 87 100 100 97 100 99 98 96 76 39 43 44 36 36 30 24 24 21 14 14 14 15 17 19 22 23 24 27
73 85 96 97 93 96 97 73 69 96 97 100 83 67 53 32 33 50 60 71 86 97 100 100 100 100 98 72 58 47 33 36 32 34 32 26 24 22 16 15 16 18 20 23 23 25 26 29 31
Wind_Speed
17 16 15 18 13 13 23 25 26 21 17 18 14 14 13 18 18 8 3 2 8 7 3 8 10 8 8 8 6 6 6 5 5 4 3 3 3 3 3 2 1 1 1 2 3 4 5 6 7
17 17 17 16 16 22 26 27 28 22 18 19 20 19 19 17 17 18 16 13 13 11 6 5 11 9 9 9 8 8 6 6 5 4 3 3 3 3 2 0 1 2 2 3 4 5 7 8 9
17 16 16 12 21 31 23 30 27 21 26 18 19 21 22 19 14 16 17 14 17 13 7 6 10 11 11 10 10 8 7 7 6 5 4 3 3 2 1 2 2 2 3 4 5 6 8 9 10
16 17 17 23 27 19 17 22 28 29 25 27 29 23 22 23 21 15 14 18 18 15 9 8 9 13 13 13 12 11 9 8 7 6 4 3 3 3 3 2 3 3 4 5 6 8 8 9 9
16 18 21 25 27 26 23 23 25 21 27 27 29 32 30 25 20 13 19 17 18 16 12 10 11 13 16 15 14 12 10 8 8 7 5 4 3 4 3 3 4 4 5 6 7 8 8 8 8
16 17 22 28 27 25 22 22 26 27 29 25 30 32 32 33 32 25 15 18 20 19 16 14 13 14 18 18 15 14 12 10 9 8 6 5 4 5 4 4 5 5 5 6 6 6 7 7 7
16 18 27 29 31 29 25 24 28 27 27 31 34 31 34 36 32 24 26 23 21 21 20 18 17 16 18 20 17 14 13 12 10 9 7 6 5 5 5 5 6 6 5 5 5 6 6 5 5
16 19 28 28 31 34 28 24 27 31 30 29 30 29 33 31 37 30 22 26 26 24 24 21 18 17 19 20 18 16 14 13 11 10 8 7 6 5 5 6 6 5 5 3 4 5 4 5 6
19 19 25 26 27 28 28 27 26 31 32 30 30 32 30 33 28 31 26 26 28 28 25 23 20 21 22 22 20 17 16 14 13 11 9 8 7 6 5 5 5 5 4 3 4 4 4 6 7
19 23 26 26 26 29 30 30 26 33 35 36 32 31 29 28 33 27 24 30 31 30 27 25 22 24 25 23 21 19 17 15 14 12 10 8 7 5 5 5 4 4 4 4 4 4 5 6 6
19 21 21 22 23 27 30 32 32 34 37 38 37 36 34 30 31 33 29 31 35 30 29 25 24 26 27 24 23 20 18 16 14 13 11 9 7 6 5 4 4 4 5 5 5 5 5 5 5
23 23 23 24 26 29 32 33 37 37 41 37 41 41 40 35 33 36 31 34 37 34 29 28 24 27 29 27 25 22 20 17 15 13 11 9 8 6 5 4 4 4 6 5 5 5 5 5 5
24 24 24 26 28 30 34 37 40 41 37 35 38 43 42 42 32 38 38 36 39 37 34 29 26 29 31 28 26 23 20 18 16 14 12 10 8 6 5 4 5 4 6 6 6 5 4 5 6
23 26 28 29 29 31 33 38 33 41 36 33 37 41 41 44 38 39 42 39 42 38 36 33 27 24 32 30 27 24 21 19 16 14 12 10 7 6 6 5 5 4 6 6 6 6 5 6 6
27 32 30 28 20 26 30 45 38 32 28 34 37 39 41 41 40 40 43 40 38 41 39 34 30 27 30 31 28 25 22 19 17 15 13 10 8 7 6 6 6 5 6 6 6 6 6 6 9
25 26 28 27 29 26 26 51 38 28 31 33 34 35 37 37 37 37 45 40 36 45 43 39 36 29 31 33 30 26 23 19 17 15 13 11 9 7 7 7 6 6 6 6 6 6 6 8 9
22 26 34 39 28 27 23 48 41 34 29 31 28 34 38 36 34 37 45 41 37 42 44 43 37 34 33 34 31 27 23 20 17 15 13 11 9 8 7 6 6 6 6 6 7 7 6 8 10
25 35 37 38 32 39 45 53 43 34 37 36 33 34 31 35 33 36 43 45 39 38 44 41 38 37 35 35 32 27 23 20 17 16 13 11 9 9 7 7 7 6 6 7 8 9 8 9 10
26 31 37 37 31 35 38 46 45 38 37 37 35 34 33 33 31 35 40 45 39 38 46 40 43 36 39 35 32 28 23 21 19 16 13 11 10 9 8 7 7 7 7 9 10 9 9 11 10
23 29 34 37 26 31 38 48 42 27 24 31 29 31 31 31 29 35 40 47 40 37 48 42 45 34 33 35 31 27 24 22 19 16 14 12 10 9 9 8 7 8 8 10 11 10 9 12 11
21 26 26 33 35 33 27 43 27 33 27 16 20 27 29 29 30 34 40 43 39 37 51 42 41 34 32 34 32 30 26 23 19 17 14 12 10 9 9 9 8 8 9 10 12 11 11 14 13
26 25 29 34 30 16 25 15 45 27 33 21 16 23 28 27 29 33 40 38 37 38 49 39 38 34 33 34 32 29 25 23 21 18 14 12 10 9 8 11 7 8 10 10 12 13 12 14 15
30 27 30 34 33 31 28 13 24 37 27 19 20 18 26 27 27 31 38 37 33 39 43 37 40 32 36 35 33 29 27 24 21 18 15 12 10 10 9 11 7 9 11 12 11 13 13 14 16
24 30 31 13 10 6 14 9 27 17 24 30 27 16 23 24 30 33 38 35 32 40 41 43 40 35 36 34 31 30 25 23 21 17 15 12 10 10 9 11 8 9 12 12 11 13 14 15 17
20 28 7 4 1 6 9 10 22 17 23 34 27 20 16 28 33 38 43 43 37 41 39 45 36 34 37 33 28 29 24 22 20 16 14 12 10 10 9 9 10 9 12 12 12 14 16 16 17
24 16 9 6 4 14 19 9 12 25 33 32 22 16 19 34 37 40 44 45 34 39 39 41 38 36 40 42 32 26 22 22 19 15 13 12 10 10 9 8 12 10 11 12 13 15 16 17 17
16 13 21 13 19 9 7 15 29 23 35 35 13 12 17 21 34 42 41 36 35 41 41 40 35 38 39 41 46 25 22 22 17 16 11 12 10 9 9 9 12 12 10 13 14 16 16 17 18
12 19 10 8 6 6 6 15 13 39 46 39 18 11 20 17 28 37 32 30 36 47 44 39 38 40 35 34 41 28 23 22 17 12 12 11 10 10 9 9 13 11 12 13 15 16 17 18 20
16 13 9 12 10 4 7 14 17 39 48 36 17 9 12 25 31 30 31 31 40 45 27 35 34 38 30 34 36 29 20 15 14 12 11 11 10 9 10 11 12 11 12 13 15 16 18 20 22
7 18 17 8 6 12 18 17 16 43 49 25 9 6 14 26 29 29 30 35 36 23 30 33 39 40 38 31 29 25 21 19 17 13 11 11 11 9 9 12 11 12 12 13 15 17 20 23 25
Wind_Direction
287 284 276 259 244 230 239 241 247 249 247 251 254 257 255 248 251 273 269 244 334 360 350 237 234 229 223 220 230 241 258 259 264 281 306 313 319 322 318 325 56 78 19 357 353 352 347 340 337
282 278 276 263 240 233 245 252 250 246 245 244 247 249 247 250 246 249 253 267 284 302 325 265 239 230 222 225 237 246 251 253 255 266 289 299 307 311 317 31 347 338 337 332 336 333 334 335 336
280 272 268 255 248 244 252 253 254 252 243 237 241 244 243 247 250 243 250 260 268 281 284 267 241 233 222 225 236 237 236 242 248 260 265 277 288 281 260 287 298 314 321 324 326 330 333 335 334
278 269 262 251 250 262 257 263 262 255 245 243 241 245 246 245 247 238 245 256 257 265 264 258 243 233 228 224 239 243 225 231 244 248 247 261 275 270 267 278 292 301 312 320 323 325 327 331 328
275 269 259 256 258 261 265 265 264 259 254 247 248 244 247 247 249 239 237 249 245 244 249 244 236 235 229 227 236 247 235 230 240 243 240 248 258 266 267 274 284 293 305 311 319 323 331 330 329
276 268 260 262 268 270 269 268 264 262 253 255 249 246 246 244 250 247 234 233 231 237 242 237 235 236 230 228 234 243 242 235 238 241 241 243 250 259 268 274 284 292 300 308 317 326 332 328 340
286 275 269 271 273 274 275 267 267 261 262 256 255 253 246 245 244 248 240 233 231 234 235 233 237 239 234 231 233 236 239 239 237 239 238 239 247 256 264 278 286 292 297 308 318 326 332 337 340
294 279 273 278 281 285 286 275 266 266 259 258 262 259 249 248 246 249 239 229 234 233 236 242 244 238 234 230 232 233 234 240 239 238 232 234 242 255 271 280 286 289 286 294 310 330 335 335 332
294 278 281 288 289 291 288 279 269 266 265 258 255 258 251 244 247 245 242 224 222 227 232 237 241 235 229 227 228 229 229 234 241 240 234 232 237 250 266 281 286 284 285 291 312 333 331 328 327
299 294 296 296 297 294 290 287 281 267 262 260 257 262 256 245 238 241 230 216 227 224 229 231 241 235 228 227 227 227 228 229 234 236 237 236 239 246 264 273 276 280 287 299 309 322 325 325 330
308 304 304 299 294 291 289 285 281 277 266 264 260 253 254 248 238 236 229 218 232 229 225 230 231 230 226 224 225 225 226 227 230 232 234 238 245 250 255 267 271 275 279 289 302 306 312 314 327
303 304 300 297 290 289 290 290 285 280 281 269 264 261 252 246 238 237 232 216 225 227 230 224 228 223 225 221 223 224 225 225 227 229 232 237 245 253 257 261 259 271 273 277 284 289 301 304 315
303 306 298 296 298 299 292 288 285 282 281 272 265 264 257 253 238 234 236 227 214 224 224 227 233 220 222 220 221 223 223 225 225 225 229 233 238 250 255 252 255 262 271 276 278 279 287 298 309
309 308 305 299 301 297 292 289 274 287 291 276 267 260 258 253 244 227 232 231 218 221 221 228 231 229 220 219 218 221 221 222 223 223 226 230 236 242 250 255 261 262 269 273 269 269 281 294 297
313 308 305 304 305 306 300 286 284 298 289 275 264 260 256 253 248 228 226 230 229 213 220 227 227 229 227 219 216 218 219 220 222 223 224 228 233 240 250 256 262 264 267 267 267 277 287 300 294
312 310 312 308 313 313 304 285 298 293 289 277 265 258 254 248 246 232 222 222 227 214 213 224 228 222 226 220 214 215 215 217 219 222 223 226 228 238 246 255 261 266 266 272 276 282 294 302 293
319 311 308 309 309 306 293 294 295 296 284 278 273 256 253 245 241 227 221 221 222 223 206 221 221 228 224 215 213 212 212 214 217 220 223 226 231 237 249 253 260 265 271 277 280 281 287 291 293
313 313 308 301 306 300 293 287 295 287 280 276 264 256 247 245 235 221 218 221 221 218 210 210 221 224 216 210 213 209 209 211 214 219 222 226 233 243 249 251 257 262 267 273 276 280 289 290 290
314 309 307 315 314 302 296 296 300 302 280 270 263 250 245 242 230 217 215 220 222 211 206 223 216 218 212 209 208 205 207 209 211 216 220 226 234 244 248 252 255 263 270 279 278 285 292 288 288
309 307 313 317 324 312 309 301 313 325 297 270 262 250 243 239 227 218 213 218 221 214 202 217 214 217 198 208 204 204 206 208 209 212 217 224 233 242 251 255 256 267 276 283 281 288 293 290 288
303 307 314 313 323 318 314 308 324 332 334 290 254 246 240 233 226 221 215 218 220 218 198 205 208 201 203 205 202 202 203 205 205 208 214 222 232 242 250 257 259 268 279 287 289 291 300 293 295
310 324 314 313 316 301 304 295 311 333 330 331 270 235 240 235 223 219 218 218 219 206 194 202 202 201 198 204 202 201 203 202 202 203 209 218 230 240 248 254 260 272 285 283 288 294 295 297 296
310 311 311 310 299 293 293 257 297 318 339 337 337 262 231 229 228 219 217 217 217 201 196 205 209 204 200 200 202 201 202 203 202 200 205 213 227 239 245 255 261 275 282 284 294 296 297 297 297
319 321 323 298 279 256 273 233 297 340 344 330 317 302 231 223 221 215 213 215 213 200 195 198 197 208 191 197 198 201 200 202 201 198 204 211 222 236 244 256 262 276 285 288 296 295 297 300 301
322 327 309 312 237 239 311 276 277 311 321 334 305 283 251 222 212 208 209 211 213 194 197 191 195 208 187 192 196 198 196 199 201 198 206 212 221 234 241 256 268 272 283 290 297 298 301 301 301
308 314 276 301 297 301 303 239 310 315 328 335 321 271 250 226 207 205 209 212 213 198 197 189 204 203 190 192 191 194 194 198 193 197 211 219 226 236 245 259 270 277 282 299 299 301 302 301 303
305 302 305 271 281 271 253 282 304 323 332 342 321 267 259 229 211 199 207 210 209 206 192 183 200 194 190 200 197 200 197 195 196 193 209 232 234 239 248 263 281 277 295 300 303 302 302 304 305
302 307 314 317 304 293 279 297 292 332 338 337 329 289 247 213 200 195 192 202 210 206 204 195 196 196 199 194 207 188 204 197 192 197 217 232 237 241 258 268 273 293 301 303 303 302 303 302 302
302 310 300 290 261 289 314 305 312 331 329 324 339 316 209 194 186 190 188 197 205 198 193 190 191 182 178 188 179 185 204 196 200 211 225 235 237 248 264 275 284 296 301 301 301 301 300 301 303
324 323 301 284 302 284 282 285 307 331 335 355 4 73 165 179 183 183 195 186 200 201 193 178 183 172 179 173 185 192 199 200 205 210 224 235 239 253 273 281 288 294 297 301 298 298 300 304 307